Location: Cruquius
(52.3348°N, 4.6319°E)
Time: 18:49:51
(UTC+00:00)

Cosmos 1777 Rocket - Pass Details

Date: 12 May 2021
Orbit: 758 x 776 km, 74.0° (Epoch: 20 June)

Event Time Altitude Azimuth Distance (km) Brightness Sun altitude
Rises 20:08:21 0° 181° (S) 3,205 6.8 -6.0°
Reaches altitude 10° 20:10:49 10° 174° (S) 2,283 6.0 -6.3°
Maximum altitude 20:15:38 41° 105° (ESE) 1,090 4.4 -6.8°
Drops below altitude 10° 20:20:30 10° 36° (NE) 2,301 6.6 -7.4°
Sets 20:22:59 0° 30° (NNE) 3,232 7.4 -7.7°
